This is the latest recevied weather packets stored in our database for station/object KD0RIH. If no packets are shown the sender has not sent any weather packets the latest 1 day(s).
| Time | Temp. | Humidity | Pressure | Rain* | Wind** | Luminosity | Snow |
|---|---|---|---|---|---|---|---|
| 1778022693 | 14.44° C | 46% | 1011.2 hPa | 0 mm | 0 m/s | 48 W/m² | - |
| 1778022391 | 14.44° C | 44% | 1011.2 hPa | 0 mm | 0 m/s | 56 W/m² | - |
| 1778022086 | 14.44° C | 45% | 1011.1 hPa | 0 mm | 0 m/s | 52 W/m² | - |
| 1778021783 | 15° C | 44% | 1011.3 hPa | 0 mm | 0 m/s | 64 W/m² | - |
| 1778021479 | 15° C | 45% | 1011.2 hPa | 0 mm | 0 m/s | 78 W/m² | - |
| 1778021176 | 15° C | 43% | 1011.2 hPa | 0 mm | 0 m/s | 86 W/m² | - |
| 1778020874 | 14.44° C | 45% | 1011.2 hPa | 0 mm | 0 m/s | 84 W/m² | - |
| 1778020570 | 15° C | 46% | 1011 hPa | 0 mm | 0 m/s | 99 W/m² | - |
| 1778020267 | 15° C | 46% | 1011.2 hPa | 0 mm | 0 m/s | 89 W/m² | - |
| 1778019963 | 15° C | 47% | 1011.3 hPa | 0 mm | 0 m/s | 92 W/m² | - |
| 1778019659 | 15° C | 46% | 1011.2 hPa | 0 mm | 0 m/s | 89 W/m² | - |
| 1778019357 | 14.44° C | 45% | 1011.5 hPa | 0 mm | 0 m/s | 96 W/m² | - |
| 1778019053 | 15° C | 43% | 1011.3 hPa | 0 mm | 0 m/s | 84 W/m² | - |
| 1778018750 | 15° C | 44% | 1011.5 hPa | 0 mm | 0 m/s | 84 W/m² | - |
| 1778018448 | 15° C | 43% | 1011.4 hPa | 0 mm | 0.45 m/s, 313° | 101 W/m² | - |
| 1778018146 | 15° C | 44% | 1011.3 hPa | 0 mm | 0.45 m/s, 338° | 90 W/m² | - |
| 1778017843 | 15° C | 42% | 1011.4 hPa | 0 mm | 0 m/s | 84 W/m² | - |
| 1778017541 | 15° C | 43% | 1011.5 hPa | 0 mm | 0 m/s | 88 W/m² | - |
| 1778017238 | 15° C | 43% | 1011.4 hPa | 0 mm | 0.45 m/s, 315° | 114 W/m² | - |
| 1778016936 | 15° C | 42% | 1011.4 hPa | 0 mm | 0 m/s | 107 W/m² | - |
| 1778016632 | 15° C | 43% | 1011.5 hPa | 0 mm | 0 m/s | 97 W/m² | - |
| 1778016328 | 15° C | 41% | 1011.5 hPa | 0 mm | 0 m/s | 79 W/m² | - |
| 1778016026 | 15° C | 42% | 1011.5 hPa | 0 mm | 0 m/s | 126 W/m² | - |
| 1778015723 | 15° C | 41% | 1011.6 hPa | 0 mm | 0 m/s | 112 W/m² | - |
| 1778015419 | 15° C | 42% | 1011.5 hPa | 0 mm | 0 m/s | 115 W/m² | - |
* Rain latest hour (hover to see other rain measurements)
** Current wind speed in m/s (hover to see current wind gust speed)